******************************************************************************* JPL/HORIZONS 84P/Giclas 2025-Dec-12 17:51:53 Rec #:90000871 Soln.date: - # obs: 262 (1931-2000) IAU76/J2000 helio. ecliptic osc. elements (au, days, deg., period=Julian yrs): EPOCH= 2448880.5 ! 1992-Sep-15.0000000 (TDB) RMSW= n.a. EC= .493206 QR= 1.846814 TP= 2448878.5899 OM= 112.5276 W= 276.4837 IN= 7.2833 A= 3.644111808742803 MA= .2706279440066636 ADIST= 5.441409617485606 PER= 6.9565793390432 N= .141682605 ANGMOM= .028566227 DAN= 2.61219 DDN= 2.92032 L= 29.0635852 B= -7.2364661 TP= 1992-Sep-13.0899000000 Comet physical (GM= km^3/s^2; RAD= km): GM= n.a. RAD= .900 M1= 14.2 M2= n.a. k1= 6.5 k2= n.a. PHCOF= n.a. COMET comments 1: soln ref.= SAO/1992 2: k1=6.5;non-gravs. considered; 2008 SAO Comet Catalog ******************************************************************************* ******************************************************************************* Ephemeris / WWW_USER Fri Dec 12 17:51:53 2025 Pasadena, USA / Horizons ******************************************************************************* Target body name: 84P/Giclas {source: SAO/199220} Center body name: Earth (399) {source: DE441} Center-site name: GEOCENTRIC ******************************************************************************* Start time : A.D. 2031-Nov-30 00:00:00.0000 UT Stop time : A.D. 2031-Dec-02 00:00:00.0000 UT Step-size : 180 minutes ******************************************************************************* Target pole/equ : undefined Target radii : 0.9 km Center geodetic : 0.0, 0.0, -6378.137 {E-lon(deg),Lat(deg),Alt(km)} Center cylindric: 0.0, 0.0, 0.0 {E-lon(deg),Dxy(km),Dz(km)} Center pole/equ : ITRF93 {East-longitude positive} Center radii : 6378.137, 6378.137, 6356.752 km {Equator_a, b, pole_c} Target primary : Sun Vis. interferer : MOON (R_eq= 1737.400) km {source: DE441} Rel. light bend : Sun {source: DE441} Rel. lght bnd GM: 1.3271E+11 km^3/s^2 Small-body perts: Yes {source: SB441-N16} Atmos refraction: NO (AIRLESS) RA format : HMS Time format : CAL Calendar mode : Mixed Julian/Gregorian EOP file : eop.251212.p260310 EOP coverage : DATA-BASED 1962-JAN-20 TO 2025-DEC-12. PREDICTS-> 2026-MAR-09 Units conversion: 1 au= 149597870.700 km, c= 299792.458 km/s, 1 day= 86400.0 s Table cut-offs 1: Elevation (-90.0deg=NO ),Airmass (>38.000=NO), Daylight (NO ) Table cut-offs 2: Solar elongation ( 0.0,180.0=NO ),Local Hour Angle( 0.0=NO ) Table cut-offs 3: RA/DEC angular rate ( 0.0=NO ) ******************************************************************************* Initial IAU76/J2000 heliocentric ecliptic osculating elements (au, days, deg.): EPOCH= 2448880.5 ! 1992-Sep-15.0000000 (TDB) RMSW= n.a. EC= .493206 QR= 1.846814 TP= 2448878.5899 OM= 112.5276 W= 276.4837 IN= 7.2833 Equivalent ICRF heliocentric cartesian coordinates (au, au/d): X= 1.586966415204644E+00 Y= 9.325629795980906E-01 Z= 1.512420451977745E-01 VX=-7.631655344991077E-03 VY= 1.224502783790213E-02 VZ= 5.572945407619862E-03 Comet physical (GM= km^3/s^2; RAD= km): GM= n.a. RAD= .900 M1= 14.2 M2= n.a. k1= 6.5 k2= n.a. PHCOF= n.a. ******************************************************************************* Date__(UT)__HR:MN r rdot ************************************************** $$SOE 2031-Nov-30 00:00 4.687944444303 -4.8422570 2031-Nov-30 03:00 4.687594810991 -4.8435133 2031-Nov-30 06:00 4.687245086922 -4.8447697 2031-Nov-30 09:00 4.686895272091 -4.8460262 2031-Nov-30 12:00 4.686545366494 -4.8472826 2031-Nov-30 15:00 4.686195370127 -4.8485392 2031-Nov-30 18:00 4.685845282985 -4.8497958 2031-Nov-30 21:00 4.685495105063 -4.8510525 2031-Dec-01 00:00 4.685144836357 -4.8523093 2031-Dec-01 03:00 4.684794476862 -4.8535661 2031-Dec-01 06:00 4.684444026574 -4.8548229 2031-Dec-01 09:00 4.684093485488 -4.8560799 2031-Dec-01 12:00 4.683742853600 -4.8573369 2031-Dec-01 15:00 4.683392130905 -4.8585939 2031-Dec-01 18:00 4.683041317399 -4.8598511 2031-Dec-01 21:00 4.682690413077 -4.8611082 2031-Dec-02 00:00 4.682339417934 -4.8623655 $$EOE ******************************************************************************* Column meaning: TIME Times PRIOR to 1962 are UT1, a mean-solar time closely related to the prior but now-deprecated GMT. Times AFTER 1962 are in UTC, the current civil or "wall-clock" time-scale. UTC is kept within 0.9 seconds of UT1 using integer leap-seconds for 1972 and later years. Conversion from the internal Barycentric Dynamical Time (TDB) of solar system dynamics to the non-uniform civil UT time-scale requested for output has not been determined for UTC times after the next July or January 1st. Therefore, the last known leap-second is used as a constant over future intervals. Time tags refer to the UT time-scale conversion from TDB on Earth regardless of observer location within the solar system, although clock rates may differ due to the local gravity field and no analog to "UT" may be defined for that location. Any 'b' symbol in the 1st-column denotes a B.C. date. First-column blank (" ") denotes an A.D. date. CALENDAR SYSTEM Mixed calendar mode was active such that calendar dates after AD 1582-Oct-15 (if any) are in the modern Gregorian system. Dates prior to 1582-Oct-5 (if any) are in the Julian calendar system, which is automatically extended for dates prior to its adoption on 45-Jan-1 BC. The Julian calendar is useful for matching historical dates. The Gregorian calendar more accurately corresponds to the Earth's orbital motion and seasons. A "Gregorian-only" calendar mode is available if such physical events are the primary interest. NOTE: "n.a." in output means quantity "not available" at the print-time. 'r rdot' = The Sun's apparent range ("r", light-time aberrated) and range-rate ("rdot") relative to the target center, as seen by the observer. A positive "rdot" means the target center was moving away from the Sun, negative means moving toward the Sun. Units: AU and KM/S Computations by ... Solar System Dynamics Group, Horizons On-Line Ephemeris System 4800 Oak Grove Drive, Jet Propulsion Laboratory Pasadena, CA 91109 USA General site: https://ssd.jpl.nasa.gov/ Mailing list: https://ssd.jpl.nasa.gov/email_list.html System news : https://ssd.jpl.nasa.gov/horizons/news.html User Guide : https://ssd.jpl.nasa.gov/horizons/manual.html Connect : browser https://ssd.jpl.nasa.gov/horizons/app.html#/x API https://ssd-api.jpl.nasa.gov/doc/horizons.html command-line telnet ssd.jpl.nasa.gov 6775 e-mail/batch https://ssd.jpl.nasa.gov/ftp/ssd/horizons_batch.txt scripts https://ssd.jpl.nasa.gov/ftp/ssd/SCRIPTS Author : Jon.D.Giorgini@jpl.nasa.gov ******************************************************************************* !$$SOF COMMAND = '90000871' QUANTITIES = '19' START_TIME = '2031-Nov-30' STEP_SIZE = '3 hours' STOP_TIME = '2031-Dec-02'